[[{"header":{"parameterUnit":"m.s-1","parameterCategory":1,"la1":30.2992,"la2":30.254,"lo1":-89.0895,"lo2":-89.0443,"dy":0.0025,"dx":0.0025,"nx":19,"ny":19,"refTime":"2026-04-06T21:00:00:Z","depth":0,"parameterNumber":2,"parameterNumberName":"U-component_of_WINDS"},"data":[0,0,0,-3.0531,-3.0534,-3.065,-3.065,-3.0813,-3.0815,0,0,0,0,0,0,0,0,0,0,0,-3.0506,-3.0507,-3.0531,-3.0534,-3.065,-3.065,-3.0813,-3.0815,0,0,0,0,0,0,0,0,0,0,0,-3.0505,-3.0507,-3.0508,-3.0534,-3.065,-3.065,-3.0812,-3.072,0,0,0,0,0,0,0,0,0,0,-3.0604,-3.059,-3.0506,-3.0508,-3.0535,-3.065,-3.065,-3.0715,-3.0725,-3.0767,0,-3.0806,0,-3.0813,-3.0827,-3.0827,0,0,0,-3.0527,-3.0581,-3.0604,-3.0509,-3.0536,-3.0649,-3.0596,-3.0721,-3.0733,-3.0781,-3.0808,-3.0814,-3.0816,-3.0828,-3.0829,-3.1091,-3.1093,0,0,-3.0521,-3.0531,-3.0596,-3.0613,-3.0596,-3.0592,-3.0599,-3.0728,-3.0758,-3.0809,-3.0818,-3.0819,-3.0829,-3.083,-3.109,-3.1092,0,0,0,-3.0507,-3.0527,-3.0547,-3.0606,-3.0626,-3.0595,-3.0604,-3.0753,-3.0758,-3.0819,-3.0821,-3.083,-3.0832,-3.1088,-3.109,-3.1179,0,0,0,-3.0503,-3.0519,-3.0544,-3.0552,-3.0624,-3.0691,-3.0626,-3.0749,-3.0763,-3.082,-3.083,-3.0834,-3.1086,-3.1089,-3.1173,-3.122,0,0,0,-3.0495,-3.0518,-3.0538,-3.0552,-3.0603,-3.0689,-3.0701,-3.0752,-3.0765,-3.0827,-3.0834,-3.1085,-3.1089,-3.1168,-3.1211,-3.1294,0,0,0,-3.049,-3.0614,-3.054,-3.0679,-3.0602,-3.0742,-3.07,-3.0804,-3.0868,-3.0831,-3.1087,-3.109,-3.1166,-3.1206,-3.1288,-3.1368,-3.1401,0,0,-3.0653,-3.0635,-3.0716,-3.0652,-3.0809,-3.0723,-3.0893,-3.0941,-3.0936,-3.104,-3.1046,-3.1175,-3.1211,-3.1293,-3.158,-3.1607,0,0,0,-3.0771,-3.083,-3.0869,-3.0931,-3.0971,-3.1009,-3.103,-3.1048,-3.1135,-3.0992,-3.1226,-3.1246,-3.1294,-3.1332,-3.1355,-3.1396,-3.1107,-3.1107,-3.1107,-3.102,-3.1008,-3.1141,-3.1143,-3.1204,-3.1224,-3.1272,-3.1299,-3.1268,-3.1324,-3.1355,-3.1531,-3.1576,-3.1593,-3.1636,-3.1394,-3.1394,-3.1394,-3.1395,-3.126,-3.1343,-3.1298,-3.1413,-3.1399,-3.1494,-3.1518,-3.1493,-3.1581,-3.1506,-3.1548,-3.1471,-3.1622,-3.1659,-3.1401,-3.14,-3.1399,-3.1399,-3.1398,-3.1425,-3.1462,-3.1481,-3.1569,-3.1639,-3.1635,-3.1721,-3.1704,-3.1688,-3.1729,-3.1762,-3.1761,-3.1759,-3.1745,-3.1746,-3.1747,-3.1747,-3.1748,-3.1748,-3.1588,-3.1607,-3.1682,-3.1734,-3.1772,-3.1819,-3.1839,-3.1876,-3.1912,-3.1893,-3.1893,-3.1859,-3.1638,-3.1585,-3.1758,-3.1756,-3.1755,-3.1754,-3.1753,-3.1842,-3.1782,-3.1898,-3.1936,-3.1996,-3.2066,-3.2042,-3.2118,-3.2145,-3.2189,-3.2144,-3.1983,-3.1963,-3.1945,-3.1901,-3.2145,-3.2145,-3.2145,-3.2145,-3.1983,-3.197,-3.2085,-3.2147,-3.2205,-3.2195,-3.2327,-3.2344,-3.2351,-3.2367,-3.2329,-3.2268,-3.225,-3.224,-3.2216,-3.2175,-3.2483,-3.2483,-3.2483,-3.2139,-3.2131,-3.2248,-3.2254,-3.2299,-3.2339,-3.2462,-3.2535,-3.253,-3.2497,-3.238,-3.2366,-3.2267,-3.2235,-3.2203,-3.2165,-3.2089,0,0]},{"header":{"parameterUnit":"m.s-1","parameterCategory":1,"la1":30.2992,"la2":30.254,"lo1":-89.0895,"lo2":-89.0443,"dy":0.0025,"dx":0.0025,"nx":19,"ny":19,"refTime":"2026-04-06T21:00:00:Z","depth":0,"parameterNumber":3,"parameterNumberName":"V-component_of_WINDS"},"data":[0,0,0,-8.8203,-8.8207,-8.8397,-8.8397,-8.8657,-8.8659,0,0,0,0,0,0,0,0,0,0,0,-8.8161,-8.8163,-8.8202,-8.8208,-8.8397,-8.8397,-8.8656,-8.8659,0,0,0,0,0,0,0,0,0,0,0,-8.816,-8.8163,-8.8166,-8.8208,-8.8397,-8.8398,-8.8656,-8.8506,0,0,0,0,0,0,0,0,0,0,-8.8318,-8.8295,-8.8162,-8.8166,-8.8209,-8.8397,-8.8398,-8.8498,-8.8515,-8.858,0,-8.8645,0,-8.8657,-8.8678,-8.8679,0,0,0,-8.8195,-8.8281,-8.832,-8.8166,-8.8211,-8.8396,-8.8308,-8.8507,-8.8527,-8.8602,-8.8648,-8.8657,-8.8661,-8.868,-8.8682,-8.9106,-8.9108,0,0,-8.8185,-8.8202,-8.8307,-8.8333,-8.831,-8.8302,-8.8314,-8.8519,-8.8568,-8.8649,-8.8663,-8.8666,-8.8682,-8.8684,-8.9103,-8.9106,0,0,0,-8.8163,-8.8195,-8.8228,-8.8323,-8.8356,-8.8308,-8.8322,-8.8559,-8.8569,-8.8666,-8.8669,-8.8684,-8.8687,-8.91,-8.9104,-8.925,0,0,0,-8.8156,-8.8182,-8.8224,-8.8236,-8.8353,-8.8461,-8.8358,-8.8554,-8.8577,-8.8667,-8.8684,-8.869,-8.9097,-8.9102,-8.9239,-8.9315,0,0,0,-8.8144,-8.8181,-8.8214,-8.8237,-8.832,-8.8457,-8.8478,-8.8559,-8.858,-8.8679,-8.8691,-8.9096,-8.9102,-8.9231,-8.93,-8.9433,0,0,0,-8.8134,-8.8337,-8.8216,-8.8444,-8.8318,-8.8547,-8.8477,-8.8645,-8.8748,-8.8685,-8.9098,-8.9104,-8.9228,-8.9291,-8.9423,-8.9548,-8.9602,0,0,-8.84,-8.837,-8.8503,-8.84,-8.8655,-8.8516,-8.8791,-8.8867,-8.8858,-8.9022,-8.9032,-8.9243,-8.9299,-8.9431,-8.9896,-8.9939,0,0,0,-8.8592,-8.8688,-8.8752,-8.8854,-8.8919,-8.8981,-8.9013,-8.9041,-8.9181,-8.8948,-8.9325,-8.9358,-8.9435,-8.9493,-8.953,-8.9594,-8.9132,-8.9131,-8.913,-8.8993,-8.8975,-8.9193,-8.9198,-8.9296,-8.9329,-8.9406,-8.9449,-8.9398,-8.9488,-8.9537,-8.9822,-8.9891,-8.9919,-8.9986,-8.96,-8.9601,-8.9601,-8.9602,-8.9381,-8.9514,-8.9445,-8.9633,-8.9611,-8.9766,-8.9804,-8.9764,-8.9903,-8.9783,-8.9849,-8.972,-8.9967,-9.0024,-8.9612,-8.9611,-8.9609,-8.9608,-8.9607,-8.9642,-8.9703,-8.9736,-8.9882,-8.9995,-8.999,-9.0129,-9.0102,-9.0077,-9.0143,-9.0192,-9.019,-9.0184,-9.0168,-9.017,-9.017,-9.0171,-9.0172,-9.0173,-8.99,-8.9933,-9.0056,-9.0144,-9.0206,-9.0284,-9.0318,-9.0377,-9.0435,-9.0404,-9.0404,-9.0345,-8.9995,-8.9907,-9.0188,-9.0185,-9.0183,-9.0182,-9.0181,-9.0302,-9.0207,-9.0397,-9.046,-9.0561,-9.0675,-9.064,-9.0762,-9.0806,-9.0875,-9.0802,-9.0547,-9.0513,-9.0484,-9.0411,-9.0805,-9.0805,-9.0805,-9.0806,-9.0523,-9.0504,-9.0692,-9.0795,-9.0891,-9.0879,-9.109,-9.1119,-9.1132,-9.1158,-9.1096,-9.0998,-9.0969,-9.0952,-9.0913,-9.0845,-9.1341,-9.1341,-9.1342,-9.0769,-9.0759,-9.0946,-9.0963,-9.104,-9.1106,-9.1304,-9.142,-9.1415,-9.1363,-9.1177,-9.1155,-9.0995,-9.0945,-9.0889,-9.0828,-9.0703,0,0]}]]